Date,TemperatureHighF,TemperatureAvgF,TemperatureLowF,DewpointHighF,DewpointAvgF,DewpointLowF,HumidityHigh,HumidityAvg,HumidityLow,PressureMaxIn,PressureMinIn,WindSpeedMaxMPH,WindSpeedAvgMPH,GustSpeedMaxMPH,PrecipitationSumIn
2013-10-1,59.5,52.1,46.2,41.4,37.8,34.9,65,58,49,29.94,29.80,10,5,10,0.00
2013-10-2,53.6,48.5,38.5,37.2,32.0,22.5,67,54,39,30.33,29.94,18,5,18,0.00
2013-10-3,53.4,41.7,33.4,28.3,23.5,20.3,60,49,37,30.48,30.33,13,4,13,0.00
2013-10-4,55.4,38.8,29.5,30.8,24.2,19.9,72,57,38,30.50,30.39,8,2,8,0.00
2013-10-5,58.5,41.4,28.6,32.9,26.8,22.3,77,58,37,30.42,30.21,14,2,14,0.00
2013-10-6,61.7,52.2,44.8,36.9,34.8,32.8,69,53,38,30.33,30.24,6,1,6,0.00
2013-10-7,65.3,53.1,45.1,40.6,37.6,34.8,75,57,38,30.39,30.30,8,1,8,0.00
2013-10-8,66.9,52.6,42.1,40.9,37.6,34.4,77,58,37,30.39,30.27,3,0,3,0.00
2013-10-9,61.2,56.7,52.3,46.2,43.6,36.8,79,62,55,30.21,30.03,7,1,7,0.00
2013-10-10,55.8,53.0,50.9,52.7,50.2,46.0,96,90,79,30.03,29.88,10,3,10,0.03
2013-10-11,68.5,63.0,52.9,57.0,54.9,52.3,98,76,64,30.09,29.97,15,6,15,0.01
2013-10-12,71.8,61.5,53.1,59.8,56.2,52.2,98,84,63,30.18,30.09,8,3,8,0.03
2013-10-13,66.6,57.8,48.0,60.4,54.4,45.3,98,89,65,30.21,30.09,9,2,9,0.15
2013-10-14,64.6,53.9,45.3,54.0,49.2,44.0,96,85,67,30.21,30.09,6,1,6,0.00
2013-10-15,63.7,54.6,45.3,58.0,51.1,43.4,98,89,67,30.09,29.83,12,2,12,0.02
2013-10-16,50.9,48.1,44.6,50.2,47.4,43.5,98,97,89,29.83,29.62,20,7,20,0.79
2013-10-17,59.2,51.8,47.1,49.9,45.3,40.0,98,80,51,29.97,29.77,15,6,15,0.79
2013-10-18,58.5,51.4,43.3,49.9,44.3,40.4,98,78,54,30.12,29.94,15,7,15,0.06
2013-10-19,55.6,50.6,46.4,43.0,40.3,38.6,74,68,61,30.30,30.21,8,4,8,0.00
2013-10-20,64.8,53.6,43.0,53.3,46.2,38.5,89,76,62,30.27,30.09,6,2,6,0.00
2013-10-21,68.4,55.3,48.4,56.0,50.8,46.9,98,86,59,30.18,30.09,8,1,8,0.00
2013-10-22,65.3,56.1,46.9,58.6,53.1,46.2,98,90,78,30.18,30.09,8,2,8,0.00
2013-10-23,73.2,64.0,57.6,58.1,55.3,51.3,89,75,48,30.12,29.97,14,3,14,0.00
2013-10-24,70.7,60.0,50.2,57.2,53.8,49.1,98,81,57,30.21,30.09,8,2,8,0.00
2013-10-25,71.4,58.3,50.2,59.0,52.7,49.1,97,83,62,30.21,30.12,6,1,6,0.00
2013-10-26,69.3,61.4,50.7,56.4,53.2,38.1,93,75,60,30.18,30.09,10,2,10,0.00
2013-10-27,69.1,62.0,50.7,58.9,55.0,48.8,94,78,62,30.06,29.91,10,3,10,0.00
2013-10-28,64.8,57.0,51.6,55.4,52.7,49.8,97,86,72,30.06,29.91,8,1,6,0.00
2013-10-29,66.9,55.1,48.2,56.8,51.0,47.1,98,87,69,30.09,29.91,12,2,12,0.13
2013-10-30,60.1,52.9,46.4,51.6,45.9,38.2,98,78,51,30.30,30.06,14,4,14,0.15
2013-10-31,58.1,47.5,39.4,43.1,38.9,34.8,88,73,48,30.39,30.27,6,1,6,0.00